This is the latest recevied weather packets stored in our database for station/object W5ALL-WX. If no packets are shown the sender has not sent any weather packets the latest 10 day(s).
| Time | Temp. | Humidity | Pressure | Rain* | Wind** | Luminosity | Snow |
|---|---|---|---|---|---|---|---|
| 1778029631 | 21.67° C | 29% | 1009.7 hPa | 0 mm | - | - | - |
| 1778027831 | 21.67° C | 26% | 1009.4 hPa | 0 mm | - | - | - |
| 1778027231 | 22.22° C | 27% | 1009.4 hPa | 0 mm | - | - | - |
| 1778026931 | 22.22° C | 26% | 1009.4 hPa | 0 mm | - | - | - |
| 1778026631 | 22.22° C | 26% | 1009.6 hPa | 0 mm | - | - | - |
| 1778026331 | 22.22° C | 26% | 1009.6 hPa | 0 mm | - | - | - |
| 1778023931 | 21.67° C | 33% | 1009.8 hPa | 0 mm | - | - | - |
| 1778023031 | 21.11° C | 34% | 1009.7 hPa | 0 mm | - | - | - |
| 1778022731 | 21.11° C | 34% | 1009.6 hPa | 0 mm | - | - | - |
| 1778021231 | 21.67° C | 34% | 1010.1 hPa | 0 mm | - | - | - |
| 1778020931 | 21.67° C | 34% | 1010.1 hPa | 0 mm | - | - | - |
| 1778020331 | 21.11° C | 35% | 1010.3 hPa | 0 mm | - | - | - |
| 1778020031 | 21.11° C | 35% | 1010.4 hPa | 0 mm | - | - | - |
| 1778019731 | 21.11° C | 35% | 1010.4 hPa | 0 mm | - | - | - |
| 1778019431 | 21.11° C | 35% | 1010.5 hPa | 0 mm | - | - | - |
| 1778019131 | 21.11° C | 35% | 1010.6 hPa | 0 mm | - | - | - |
| 1778018831 | 21.11° C | 35% | 1010.8 hPa | 0 mm | - | - | - |
| 1778018531 | 21.11° C | 35% | 1010.8 hPa | 0 mm | - | - | - |
| 1778017931 | 21.67° C | 35% | 1011 hPa | 0 mm | - | - | - |
| 1778017331 | 21.67° C | 34% | 1011.1 hPa | 0 mm | - | - | - |
| 1778017031 | 21.67° C | 36% | 1011.1 hPa | 0 mm | - | - | - |
| 1778016731 | 21.11° C | 35% | 1011.2 hPa | 0 mm | - | - | - |
| 1778016431 | 21.11° C | 36% | 1011.3 hPa | 0 mm | - | - | - |
| 1778016131 | 21.11° C | 37% | 1011.4 hPa | 0 mm | - | - | - |
| 1778015831 | 21.11° C | 35% | 1011.5 hPa | 0 mm | - | - | - |
* Rain latest hour (hover to see other rain measurements)
** Current wind speed in m/s (hover to see current wind gust speed)